• En España
  • Lista de países
  • Para 7 días
  • Temperatura del agua
  • Mapa Satelital
  • El tiempo en el mapa
  • Informadores
  • user-avatar
    Iniciar sesión

    Tiempo cada hora Meppel

    Hoy, 20 Julio, Jueves

    Tiempo Temperatura Precipitaciones Viento Presión Humedad
    00:00 +20°C° 0 mm 2 mps 756 mmHg 91%
    01:00 +20°C° 1,1 mm 2 mps 755 mmHg 93%
    02:00 +19°C° 1,1 mm 2 mps 755 mmHg 94%
    03:00 +19°C° 1,1 mm 2 mps 754 mmHg 95%
    04:00 +19°C° 0,7 mm 2 mps 754 mmHg 95%
    05:00 +19°C° 0,7 mm 2 mps 754 mmHg 94%
    06:00 +19°C° 0 mm 3 mps 755 mmHg 94%
    07:00 +20°C° 0,3 mm 3 mps 755 mmHg 91%
    08:00 +21°C° 0,3 mm 3 mps 755 mmHg 89%
    09:00 +21°C° 0,3 mm 3 mps 755 mmHg 86%
    10:00 +22°C° 0,8 mm 3 mps 755 mmHg 84%
    11:00 +24°C° 0,8 mm 3 mps 755 mmHg 81%
    12:00 +25°C° 0 mm 3 mps 755 mmHg 78%
    13:00 +25°C° 0,8 mm 4 mps 755 mmHg 77%
    14:00 +23°C° 0,8 mm 4 mps 755 mmHg 77%
    15:00 +23°C° 0,8 mm 4 mps 755 mmHg 76%
    16:00 +23°C° 0,4 mm 5 mps 755 mmHg 79%
    17:00 +22°C° 0,4 mm 5 mps 756 mmHg 82%
    18:00 +21°C° 0,4 mm 5 mps 756 mmHg 85%
    19:00 +20°C° 0 mm 5 mps 757 mmHg 87%
    20:00 +18°C° 0 mm 4 mps 757 mmHg 88%
    21:00 +17°C° 0 mm 4 mps 758 mmHg 90%
    22:00 +15°C° 0 mm 4 mps 758 mmHg 91%
    23:00 +14°C° 0 mm 3 mps 759 mmHg 91%

    Mañana, 21 Julio, Viernes

    Tiempo Temperatura Precipitaciones Viento Presión Humedad
    00:00 +14°C° 0 mm 3 mps 759 mmHg 92%
    01:00 +13°C° 0 mm 3 mps 759 mmHg 92%
    02:00 +13°C° 0 mm 3 mps 759 mmHg 92%
    03:00 +13°C° 0 mm 2 mps 759 mmHg 93%
    04:00 +13°C° 0 mm 3 mps 760 mmHg 90%
    05:00 +14°C° 0 mm 3 mps 760 mmHg 88%
    06:00 +16°C° 0 mm 3 mps 760 mmHg 86%
    07:00 +17°C° 0 mm 3 mps 760 mmHg 79%
    08:00 +19°C° 0 mm 3 mps 761 mmHg 72%
    09:00 +20°C° 0 mm 3 mps 761 mmHg 65%
    10:00 +21°C° 0 mm 3 mps 761 mmHg 62%
    11:00 +21°C° 0 mm 2 mps 761 mmHg 59%
    12:00 +23°C° 0 mm 2 mps 761 mmHg 55%
    13:00 +23°C° 0 mm 2 mps 760 mmHg 54%
    14:00 +24°C° 0 mm 2 mps 760 mmHg 54%
    15:00 +24°C° 0 mm 2 mps 760 mmHg 53%
    16:00 +23°C° 0 mm 2 mps 760 mmHg 57%
    17:00 +23°C° 0 mm 2 mps 760 mmHg 61%
    18:00 +23°C° 0 mm 2 mps 759 mmHg 65%
    19:00 +20°C° 0 mm 2 mps 760 mmHg 68%
    20:00 +18°C° 0 mm 3 mps 760 mmHg 72%
    21:00 +17°C° 0 mm 3 mps 760 mmHg 75%
    22:00 +16°C° 0 mm 3 mps 759 mmHg 77%
    23:00 +15°C° 0 mm 4 mps 759 mmHg 80%

    Pasado mañana, 22 Julio, Sábado

    Tiempo Temperatura Precipitaciones Viento Presión Humedad
    00:00 +15°C° 0 mm 4 mps 759 mmHg 82%
    01:00 +15°C° 0 mm 4 mps 759 mmHg 83%
    02:00 +14°C° 0 mm 4 mps 759 mmHg 84%
    03:00 +14°C° 0 mm 4 mps 759 mmHg 84%
    04:00 +16°C° 0 mm 3 mps 759 mmHg 83%
    05:00 +17°C° 0 mm 3 mps 759 mmHg 82%
    06:00 +18°C° 0 mm 3 mps 759 mmHg 81%
    07:00 +20°C° 0 mm 3 mps 759 mmHg 75%
    08:00 +22°C° 0 mm 3 mps 758 mmHg 69%
    09:00 +25°C° 0 mm 4 mps 758 mmHg 63%
    10:00 +25°C° 0,2 mm 4 mps 758 mmHg 62%
    11:00 +26°C° 0,2 mm 4 mps 758 mmHg 61%
    12:00 +27°C° 0,2 mm 5 mps 758 mmHg 60%
    13:00 +27°C° 0,4 mm 5 mps 758 mmHg 59%
    14:00 +27°C° 0,4 mm 4 mps 758 mmHg 58%
    15:00 +27°C° 0,4 mm 4 mps 758 mmHg 57%
    16:00 +25°C° 0,4 mm 3 mps 758 mmHg 65%
    17:00 +24°C° 0,4 mm 3 mps 758 mmHg 72%
    18:00 +23°C° 0,4 mm 2 mps 758 mmHg 80%
    19:00 +20°C° 0,2 mm 2 mps 758 mmHg 83%
    20:00 +19°C° 0,2 mm 2 mps 758 mmHg 86%
    21:00 +19°C° 0,2 mm 1 mps 758 mmHg 89%
    22:00 +17°C° 0 mm 2 mps 758 mmHg 90%
    23:00 +17°C° 0 mm 2 mps 758 mmHg 92%

    23 Julio, Domingo

    Tiempo Temperatura Precipitaciones Viento Presión Humedad
    00:00 +17°C° 0 mm 2 mps 758 mmHg 93%
    01:00 +16°C° 0 mm 2 mps 758 mmHg 94%
    02:00 +16°C° 0 mm 2 mps 758 mmHg 95%
    03:00 +16°C° 0 mm 2 mps 758 mmHg 96%
    04:00 +16°C° 0,3 mm 2 mps 758 mmHg 94%
    05:00 +17°C° 0,3 mm 2 mps 758 mmHg 92%
    06:00 +17°C° 0,3 mm 2 mps 758 mmHg 89%
    07:00 +18°C° 0,7 mm 3 mps 758 mmHg 85%
    08:00 +19°C° 0,7 mm 4 mps 758 mmHg 80%
    09:00 +19°C° 0,7 mm 5 mps 758 mmHg 75%
    10:00 +19°C° 0,9 mm 5 mps 758 mmHg 76%
    11:00 +19°C° 0,9 mm 6 mps 758 mmHg 76%
    12:00 +18°C° 0,9 mm 7 mps 758 mmHg 76%
    13:00 +20°C° 0,4 mm 6 mps 758 mmHg 73%
    14:00 +20°C° 0,4 mm 6 mps 758 mmHg 71%
    15:00 +20°C° 0,4 mm 6 mps 758 mmHg 68%
    16:00 +20°C° 0,1 mm 5 mps 758 mmHg 71%
    17:00 +20°C° 0,1 mm 5 mps 758 mmHg 73%
    18:00 +19°C° 0,1 mm 4 mps 758 mmHg 76%
    19:00 +18°C° 0 mm 3 mps 758 mmHg 80%
    20:00 +16°C° 0 mm 3 mps 759 mmHg 84%
    21:00 +14°C° 0 mm 3 mps 759 mmHg 88%
    22:00 +14°C° 0 mm 3 mps 758 mmHg 89%
    23:00 +13°C° 0 mm 3 mps 758 mmHg 90%

    24 Julio, Lunes

    Tiempo Temperatura Precipitaciones Viento Presión Humedad
    00:00 +13°C° 0 mm 3 mps 758 mmHg 91%
    01:00 +13°C° 0,1 mm 3 mps 757 mmHg 92%
    02:00 +12°C° 0,1 mm 3 mps 757 mmHg 93%
    03:00 +12°C° 0,1 mm 3 mps 757 mmHg 94%
    04:00 +13°C° 0,3 mm 4 mps 756 mmHg 93%
    05:00 +13°C° 0,3 mm 4 mps 756 mmHg 93%
    06:00 +14°C° 0,3 mm 4 mps 756 mmHg 92%
    07:00 +14°C° 0,4 mm 4 mps 756 mmHg 92%
    08:00 +15°C° 0,4 mm 5 mps 756 mmHg 91%
    09:00 +15°C° 0,4 mm 5 mps 756 mmHg 90%
    10:00 +17°C° 0,8 mm 4 mps 756 mmHg 88%
    11:00 +18°C° 0,8 mm 4 mps 756 mmHg 85%
    12:00 +18°C° 0,8 mm 4 mps 755 mmHg 82%
    13:00 +19°C° 0,9 mm 3 mps 755 mmHg 80%
    14:00 +19°C° 0,9 mm 3 mps 755 mmHg 78%
    15:00 +19°C° 0,9 mm 3 mps 755 mmHg 76%
    16:00 +19°C° 0,6 mm 3 mps 756 mmHg 79%
    17:00 +19°C° 0,6 mm 3 mps 756 mmHg 82%
    18:00 +18°C° 0,6 mm 3 mps 756 mmHg 85%
    19:00 +17°C° 0,1 mm 3 mps 756 mmHg 88%
    20:00 +16°C° 0,1 mm 3 mps 757 mmHg 91%
    21:00 +14°C° 0,1 mm 3 mps 757 mmHg 94%
    22:00 +14°C° 0 mm 3 mps 757 mmHg 95%
    23:00 +13°C° 0 mm 3 mps 757 mmHg 95%

    25 Julio, Martes

    Tiempo Temperatura Precipitaciones Viento Presión Humedad
    00:00 +13°C° 0 mm 3 mps 757 mmHg 95%
    01:00 +13°C° 0 mm 3 mps 757 mmHg 95%
    02:00 +13°C° 0 mm 3 mps 757 mmHg 95%
    03:00 +13°C° 0 mm 3 mps 757 mmHg 95%
    04:00 +13°C° 0 mm 3 mps 758 mmHg 94%
    05:00 +14°C° 0 mm 3 mps 758 mmHg 92%
    06:00 +15°C° 0 mm 4 mps 758 mmHg 91%
    07:00 +17°C° 0,1 mm 4 mps 758 mmHg 85%
    08:00 +19°C° 0,1 mm 4 mps 758 mmHg 79%
    09:00 +20°C° 0,1 mm 4 mps 758 mmHg 74%
    10:00 +20°C° 0,2 mm 5 mps 758 mmHg 71%
    11:00 +21°C° 0,2 mm 5 mps 758 mmHg 68%
    12:00 +22°C° 0,2 mm 5 mps 758 mmHg 66%
    13:00 +21°C° 0,4 mm 5 mps 758 mmHg 69%
    14:00 +21°C° 0,4 mm 6 mps 759 mmHg 72%
    15:00 +21°C° 0,4 mm 6 mps 759 mmHg 75%
    16:00 +20°C° 0,1 mm 5 mps 759 mmHg 77%
    17:00 +19°C° 0,1 mm 5 mps 759 mmHg 79%
    18:00 +18°C° 0,1 mm 4 mps 759 mmHg 82%
    19:00 +17°C° 0 mm 4 mps 759 mmHg 83%
    20:00 +17°C° 0 mm 3 mps 759 mmHg 85%
    21:00 +16°C° 0 mm 3 mps 759 mmHg 86%
    22:00 +14°C° 0 mm 3 mps 759 mmHg 87%
    23:00 +14°C° 0 mm 3 mps 759 mmHg 89%
    Mostrar más